This is the latest recevied weather packets stored in our database for station/object KD8TSA. If no packets are shown the sender has not sent any weather packets the latest 1 day(s).
| Time | Temp. | Humidity | Pressure | Rain* | Wind** | Luminosity | Snow |
|---|---|---|---|---|---|---|---|
| 1778081050 | 11.11° C | 82% | 1011.7 hPa | 0 mm | - | 514 W/m² | - |
| 1778080445 | 11.11° C | 83% | 1011.1 hPa | 0 mm | - | 336 W/m² | - |
| 1778080143 | 11.11° C | 84% | 1011.2 hPa | 0 mm | - | 438 W/m² | - |
| 1778078021 | 9.44° C | 97% | 1010.8 hPa | 0 mm | - | 409 W/m² | - |
| 1778077417 | 9.44° C | 98% | 1010.8 hPa | 0 mm | - | 424 W/m² | - |
| 1778076813 | 9.44° C | 98% | 1010.8 hPa | 0 mm | - | 362 W/m² | - |
| 1778075297 | 8.89° C | 99% | 1010.2 hPa | 0 mm | - | 477 W/m² | - |
| 1778074691 | 8.33° C | 99% | 1010.1 hPa | 0 mm | - | 583 W/m² | - |
| 1778073175 | 7.78° C | 99% | 1010.3 hPa | 0 mm | - | 232 W/m² | - |
| 1778072872 | 7.78° C | 99% | 1010 hPa | 0 mm | - | 184 W/m² | - |
| 1778072569 | 7.78° C | 99% | 1010 hPa | 0 mm | - | 173 W/m² | - |
| 1778071965 | 7.78° C | 99% | 1009.9 hPa | 0 mm | - | 133 W/m² | - |
| 1778071663 | 7.78° C | 99% | 1009.6 hPa | 0 mm | - | 131 W/m² | - |
| 1778070756 | 7.78° C | 99% | 1009.4 hPa | 0 mm | - | 39 W/m² | - |
| 1778070150 | 7.78° C | 99% | 1009.5 hPa | 0 mm | - | 82 W/m² | - |
| 1778069848 | 7.78° C | 99% | 1009.4 hPa | 0 mm | - | 48 W/m² | - |
| 1778067730 | 7.22° C | 99% | 1009 hPa | 0 mm | - | 12 W/m² | - |
| 1778065914 | 7.22° C | 99% | 1008.5 hPa | 0 mm | - | 5 W/m² | - |
| 1778065309 | 7.22° C | 99% | 1008 hPa | 0 mm | - | 6 W/m² | - |
| 1778065005 | 7.22° C | 99% | 1007.6 hPa | 0 mm | - | 4 W/m² | - |
| 1778063795 | 7.22° C | 99% | 1007.2 hPa | 0 mm | - | 0 W/m² | - |
| 1778063190 | 7.22° C | 99% | 1006.9 hPa | 0 mm | - | 0 W/m² | - |
| 1778062887 | 7.22° C | 99% | 1007.3 hPa | 0 mm | - | 0 W/m² | - |
| 1778062583 | 7.22° C | 99% | 1007.2 hPa | 0 mm | - | 0 W/m² | - |
| 1778062280 | 7.22° C | 99% | 1007.4 hPa | 0 mm | - | 0 W/m² | - |
* Rain latest hour (hover to see other rain measurements)
** Current wind speed in m/s (hover to see current wind gust speed)